Regional Weather Roundup
Issued by NWS

Home | Current Version | Previous Version | Graphics & Text | Print | Product List | Glossary On
Versions: 1 2 3 4 5 6 7 8 9 10 11 12 13 14 15 16 17 18 19 20 21 22 23 24 25 26 27 28 29 30 31 32 33 34 35 36 37 38 39 40 41 42 43 44 45 46 47 48 49 50
000
ASUS45 KCYS 270810
RWRWY

WYOMING REGIONAL WEATHER ROUNDUP
NATIONAL WEATHER SERVICE CHEYENNE WY
200 AM MDT THU JUL 27 2017

NOTE:  "FAIR" INDICATES FEW OR NO CLOUDS BELOW 12,000 FEET
WITH NO SIGNIFICANT WEATHER AND/OR OBSTRUCTIONS TO VISIBILITY.

WYZ001-270900-
YELLOWSTONE NATIONAL PARK

CITY           SKY/WX    TMP DP  RH WIND       PRES   REMARKS
LK YELLOWSTONE   N/A     54  50  86 CALM      30.40F
W YELLOWSTONE  NOT AVBL

$$
WYZ002>013-054>058-071-098>099-270900-
NORTHERN WYOMING

CITY           SKY/WX    TMP DP  RH WIND       PRES   REMARKS
JACKSON        FAIR      57  50  77 NE7       30.31F
CODY           FAIR      68  51  54 W7        30.20S
GREYBULL       FAIR      72  56  57 S5        30.09S
WORLAND        FAIR      66  57  72 SW7       30.10F
SHERIDAN       FAIR      60  54  80 CALM      30.08S
BUFFALO        FAIR      64  55  72 SE7       30.15F
GILLETTE       FAIR      66  55  67 S8        30.15F
HULETT         FAIR      72  52  49 S9        30.18F
NEWCASTLE      FAIR      70  48  46 SE13G21   30.21F

$$
WYZ014>020-022>026-101>103-270900-
CENTRAL WYOMING

CITY           SKY/WX    TMP DP  RH WIND       PRES   REMARKS
BIG PINEY      CLOUDY    55  49  80 CALM      30.34S
PINEDALE       PTSUNNY   54  46  76 CALM      30.34F
DUBOIS         FAIR      55  46  71 CALM      30.33S
LANDER         FAIR      62  51  67 W7        30.21R
RIVERTON       FAIR      62  56  80 NE6       30.21S
CASPER         FAIR      61  57  87 SE6       30.22F
DOUGLAS        FAIR      65  57  75 SE8       30.21F

$$
WYZ021-027>030-104>119-270900-
SOUTHERN WYOMING

CITY           SKY/WX    TMP DP  RH WIND       PRES   REMARKS
EVANSTON       FAIR      57  50  77 SE7       30.35S
KEMMERER         N/A     59  50  72 SW5       30.36S
FORT BRIDGER   CLOUDY    58  55  92 S9        30.38F
ROCK SPRINGS   FAIR      60  54  80 SE3       30.31S
RAWLINS        FAIR      59  57  93 CALM      30.32S
LARAMIE        FAIR      56  54  93 S9        30.35F
CHEYENNE       CLOUDY    65  58  78 S6        30.30F
TORRINGTON     CLOUDY    68  62  81 E8        30.19S
PINE BLUFFS    PTSUNNY   64  61  88 S5        30.27F

$$



USA.gov is the U.S. government's official web portal to all federal, state and local government web resources and services.